Regional Weather Roundup
Issued by NWS Upton, NY

Current Version | Previous Version | Text Only | Print | Product List | Glossary Off
Versions: 1 2 3 4 5 6 7 8 9 10 11 12 13 14 15 16 17 18 19 20 21 22 23 24 25 26 27 28

000
ASUS41 KOKX 221108
RWROKX

REGIONAL WEATHER ROUNDUP
NATIONAL WEATHER SERVICE NEW YORK NY
700 AM EDT SUN OCT 22 2017

NOTE: "FAIR" INDICATES FEW OR NO CLOUDS BELOW 12,000 FEET WITH NO
SIGNIFICANT WEATHER AND/OR OBSTRUCTIONS TO VISIBILITY.

NYZ071-072-176-178-NJZ106-104-221200-
NEW YORK CITY METRO AREA

CITY           SKY/WX    TMP DP  RH WIND       PRES   REMARKS
Central Park   PTCLDY    57  49  74 CALM      30.40S
Bronx Bot Gard   N/A     52  48  87 NE1       30.40R
LaGuardia APRT PTCLDY    60  53  77 E3        30.38R
Kennedy INTL   PTCLDY    51  49  92 CALM      30.39R
Breezy Point     N/A     59 N/A N/A CALM        N/A
Newark/Liberty PTCLDY    52  47  83 N3        30.38R
Teterboro      PTCLDY    49  45  86 CALM      30.38R
$$

NYZ177-179-078>081-221200-
LONG ISLAND NEW YORK

CITY           SKY/WX    TMP DP  RH WIND       PRES   REMARKS
Jones Beach      N/A     57 N/A N/A MISG        N/A
Matinecock PT    N/A     57 N/A N/A W1          N/A
Farmingdale    CLEAR     50  46  86 CALM      30.38R
MacArthur/ISP  PTCLDY    48  47  96 CALM      30.38R
Shirley        PTCLDY    48  45  89 CALM      30.39R
Mt Sinai Harb    N/A    N/A N/A N/A S2          N/A
Westhampton    CLEAR     38  36  92 CALM      30.40R
East Hampton   FAIR      41  40  97 CALM      30.38S
Montauk          N/A     54  54 100 CALM      30.39R
$$

NYZ052-065-067-221200-
HUDSON VALLEY

CITY           SKY/WX    TMP DP  RH WIND       PRES   REMARKS
White Plains   CLEAR     48  45  89 W6        30.38R
Larchmont Harb   N/A     52 N/A N/A MISG        N/A
Croton On Huds   N/A     48 N/A N/A E3          N/A
Newburgh       PTCLDY    46  43  87 CALM      30.39R
Montgomery     CLEAR     42  41  96 CALM      30.38R
Poughkeepsie   PTCLDY    40  38  93 CALM      30.38R
Albany         PTCLDY    42  40  92 CALM      30.40R FOG
$$

NJZ001-105-106-008-010-013-015-019>022-104-221200-
NEW JERSEY

CITY           SKY/WX    TMP DP  RH WIND       PRES   REMARKS
Newark/Liberty PTCLDY    52  47  83 N3        30.38R
Teterboro      PTCLDY    49  45  86 CALM      30.38R
Caldwell       CLOUDY    43  43 100 CALM      30.40R
Somerville     CLEAR     40  39  97 CALM      30.37R
Linden         FAIR      49  45  83 CALM      30.39R
Perth Amboy      N/A     52 N/A N/A NW1         N/A
Sussex         CLEAR     39  38  96 CALM      30.40R
Andover          N/A     42  41  96 CALM      30.40R
Trenton        CLEAR     46  43  89 CALM      30.38R
Millville      CLOUDY    45  45 100 CALM      30.39R FOG
Atlantic City  FOG       47  47 100 CALM      30.39R VSB 1/4
Wrightstown    MOCLDY    45  43  93 CALM      30.37R FOG
Toms River     FOG       42  42 100 CALM      30.40R VSB 1/2
Belmar         CLEAR     48  46  93 CALM      30.40R
$$

PAZ047>061-062-071-221200-
EASTERN PENNSYLVANIA

CITY           SKY/WX    TMP DP  RH WIND       PRES   REMARKS
Philadelphia   FOG       53  51  93 CALM      30.39R VSB 1/4
Allentown      PTCLDY    44  40  85 CALM      30.40R
Scranton       CLOUDY    47  42  83 CALM      30.39R
$$

CTZ002-004>006-009-010-012-RIZ004-006-007-MAZ004-011-015-221200-
SOUTHERN NEW ENGLAND
 IN CT

CITY           SKY/WX    TMP DP  RH WIND       PRES   REMARKS
Bradley INTL   MOCLDY    44  43  96 CALM      30.39R
Hartford       MOCLDY    47  45  93 CALM      30.39R
Danbury        CLEAR     40  38  93 CALM      30.40S
Wtrbury/Oxford PTCLDY    47  41  80 N3        30.39R
Norwalk Harbor   N/A     48 N/A N/A NW5         N/A
Bridgeport     CLEAR     50  45  83 N3        30.38R
Meriden        PTCLDY    45  43  93 CALM      30.39R
New Haven      CLOUDY    44  42  93 CALM      30.38R
Chester        FAIR      54  45  71 CALM      30.38R
Groton         CLOUDY    48  46  93 N3        30.38R
Wilimantic     CLOUDY    42  41  96 CALM      30.40R

 IN RI

CITY           SKY/WX    TMP DP  RH WIND       PRES   REMARKS
Providence     MOCLDY    49  48  97 CALM      30.38R
Block Island   CLOUDY    58  57  97 SW7       30.38R
Westerly       CLOUDY    46  44  93 CALM      30.39R
 IN MA

CITY           SKY/WX    TMP DP  RH WIND       PRES   REMARKS
Boston         CLOUDY    55  48  77 CALM      30.37R
Worcester      PTCLDY    54  41  61 W8        30.38R
Westfield      CLOUDY    42  42 100 N5        30.39R
Provincetown   PTCLDY    51  50  96 SW3       30.37R
Nantucket      PTCLDY    57  57 100 SW7       30.38R
$$

ANZ330-335-338-340-345-350-353-355-221200-
COASTAL MARINE OBSERVATIONS


STATION/POSITION TIME  SKY/WX   TEMP    WIND        PRES    VSBY  WAVE
                                AIR SEA DIR/SP/G                  HT/PER
                 (UTC)          (F)     (DEG/KT/KT) (MB)    (MI)  (FT/S)
NY HARB ENTRANCE 0950            63 64   CALM  /  2 1027.9          2/ 9
20 S FIRE ISLAND 0950            63 64  270/  2/  2 1028.7          2/ 8
GREAT SOUTH BAY  1015            58 62  300/  2/  2   N/A
15 E BARNEGAT LI NOT AVBL
HUDSON CANYON    0950            64 64  170/  4/  4 1028.3          2/ 8
KINGS POINT      1030            58 65   70/  1/  2 1029.3
EXECUTION ROCKS  1045            59     340/  2/  4   N/A
WESTERN LI SOUND 1000            58     340/  4/  6   N/A           0
CENTRAL LI SOUND 1030            63     290/  4/  6   N/A           1
EASTERN LI SOUND NOT AVBL
ROBBINS REEF     1048            57     270/  5/  5 1029.3
$$


>>>>>>>>>>>>>>>>>>>>>>>>>>>> KEY <<<<<<<<<<<<<<<<<<<<<<<<<<<
>                                                          <
>     SKY/WX - Sky Condition/Present Weather               <
>     TMP    - Temperature in Fahrenheit                   <
>     DP     - Dew Point in Fahrenheit                     <
>     RH     - Relative Humidity in Percent                <
>     WIND   - Direction (from) and Speed in MPH           <
>     PRES   - Mean Sea Level Pressure (inches of Hg)      <
>     WCI    - Wind Chill Index                            <
>     VSB    - VISIBILITY IN MILES                         <
>     HX     - HEAT INDEX                                  <
>     TC     - TEMPERATURE IN CELSIUS                      <
>     VRB    - VARIABLE WIND DIRECTION                     <
>                                                          <
>>>>>>>>>>>>>>>>>>>>>>>>>>>> KEY <<<<<<<<<<<<<<<<<<<<<<<<<<<




USA.gov is the U.S. government's official web portal to all federal, state and local government web resources and services.